Location: Biltmore Gardens
(41.6070°N, 83.4666°W)
Time: 15:17:51
(UTC+00:00)

Cosmos 1666 - Pass Details

Date: 14 July 2020
Orbit: 497 x 521 km, 82.5° (Epoch: 13 August)

Event Time Altitude Azimuth Distance (km) Brightness Sun altitude
Exits shadow 07:32:48 48° 124° (ESE) 670 3.1 -21.6°
Maximum altitude 07:33:17 52° 95° (E) 636 3.2 -21.6°
Drops below altitude 10° 07:36:58 10° 18° (NNE) 1,723 6.5 -21.2°
Sets 07:39:07 0° 13° (NNE) 2,609 7.6 -21.0°
